Regional Weather Roundup
Issued by NWS

Home | Current Version | Previous Version | Graphics & Text | Print | Product List | Glossary Off
Versions: 1 2 3 4 5 6 7 8 9 10 11 12 13 14 15 16 17 18 19 20 21 22 23 24 25 26 27 28 29 30 31 32 33 34 35 36 37 38 39 40 41 42 43 44 45 46 47 48 49 50

000
ASUS43 KMKX 260811
RWRWI

WISCONSIN REGIONAL WEATHER ROUNDUP
NATIONAL WEATHER SERVICE MILWAUKEE/SULLIVAN WI
300 AM CDT MON SEP 26 2016

NOTE: "FAIR" INDICATES FEW OR NO CLOUDS BELOW 12,000 FEET WITH NO
SIGNIFICANT WEATHER AND/OR OBSTRUCTIONS TO VISIBILITY.

WIZ001-002-006>008-014>016-023>028-260900-
NORTHWEST WISCONSIN

CITY           SKY/WX    TMP DP  RH WIND       PRES   REMARKS
SUPERIOR ARPT  LGT RAIN  50  49  93 W12G18    29.74F
ASHLAND        CLOUDY    51  48  89 SW15G28   29.73F
HAYWARD        LGT RAIN  49  47  93 SW10G17   29.80F FOG
SIREN          DRIZZLE   50  47  88 W13G21    29.85S
CUMBERLAND     LGT RAIN  50  43  76 W20G29    29.85F
RICE LAKE      CLOUDY    53  43  70 W14G22    29.86F
CHETEK         NOT AVBL
LADYSMITH      CLOUDY    52  44  75 W12G21    29.84F
EAU CLAIRE     MOCLDY    53  43  68 W17G25    29.88F
MENOMONIE      MOCLDY    55  44  66 W20G25    29.90F
NEW RICHMOND   MOCLDY    52  43  70 W15       29.91S
OSCEOLA        MOCLDY    54  44  71 W13G21    29.93F
$$

WIZ003>005-009-010-017-018-260900-
NORTH CENTRAL WISCONSIN

CITY           SKY/WX    TMP DP  RH WIND       PRES   REMARKS
MANITOWISH WTR NOT AVBL
ARBOR VITAE    DRIZZLE   52  49  89 W9        29.77F
WOODRUFF       DRIZZLE   52  49  89 W9        29.77F
RHINELANDER    CLOUDY    50  48  93 W14G23    29.80S
EAGLE RIVER    CLOUDY    51  47  86 W9        29.76F
LAND O LAKES   CLOUDY    51  47  86 W6G16     29.77F
PHILLIPS       CLOUDY    49  45  86 SW8G16    29.80S
TOMAHAWK       CLOUDY    49  43  78 W9        29.81F
MEDFORD        CLOUDY    49  45  84 W10G18    29.84F
MERRILL        CLOUDY    51  44  78 W12G22    29.84S
$$

WIZ029-030-035-036-043>047-260900-
CENTRAL WISCONSIN

CITY           SKY/WX    TMP DP  RH WIND       PRES   REMARKS
WAUSAU         PTCLDY    50  43  77 W13       29.84S
MOSINEE        PTCLDY    50  45  81 W15       29.87F
MARSHFIELD     CLEAR     51  42  71 W10       29.87F
STEVENS POINT  CLEAR     51  42  71 W10G23    29.88S
WAUPACA        MOCLDY    56  46  68 W15       29.88F
WAUTOMA        CLOUDY    56  45  66 W10       29.90F
WISC RAPIDS    CLEAR     52  45  77 SW8       29.90F
CAMP DOUGLAS   CLEAR     52  48  84 SW9       29.92F
$$

WIZ011>013-019>022-031-037>040-048>050-260900-
NORTHEAST WISCONSIN

CITY           SKY/WX    TMP DP  RH WIND       PRES   REMARKS
ANTIGO         CLOUDY    50  46  85 W13       29.82S
SHAWANO        CLOUDY    57  47  68 W10G25    29.84S
OCONTO         NOT AVBL
STURGEON BAY   CLOUDY    59  53  80 W14       29.81F
GREEN BAY      CLOUDY    58  53  84 W10G21    29.83F
MANITOWOC      CLOUDY    59  51  75 W13       29.84F
APPLETON       CLOUDY    55  43  62 W15G21    29.85F
CLINTONVILLE   NOT AVBL
OSHKOSH        CLOUDY    58  44  60 W15G26    29.87F
$$

WIZ032>034-041-042-053>061-260900-
SOUTHWEST WISCONSIN

CITY           SKY/WX    TMP DP  RH WIND       PRES   REMARKS
LA CROSSE      CLEAR     57  46  66 W16       29.95F
SPARTA         CLEAR     52  49  90 W3        29.95S
VIROQUA        CLEAR     51  47  86 W7        29.97S
BOSCOBEL       CLEAR     56  49  77 SW7       29.99F
PRAIRIE DU CHI CLEAR     55  46  71 W10       30.00F
PLATTEVILLE    CLOUDY    55  51  86 W10G17    30.01S
$$

WIZ056-057-062-063-064-067-068-260900-
SOUTH CENTRAL WISCONSIN

CITY           SKY/WX    TMP DP  RH WIND       PRES   REMARKS
REEDSBURG      NOT AVBL
BARABOO/DELLS  CLOUDY    55  47  76 W8        29.93F
LONE ROCK      MOCLDY    57  50  77 W12       29.96F
MINERAL POINT  CLOUDY    55  52  88 W8        29.99S
MADISON        CLOUDY    58  48  69 VRB3      29.95F
MIDDLETON      CLOUDY    58  50  75 W8        29.97R
WATERTOWN      CLOUDY    58  51  77 W10       29.94R
MONROE         CLOUDY    55  50  82 W12       29.98F
JANESVILLE     CLOUDY    59  50  72 W8        29.96F
$$

WIZ051-052-058>065-066-070>072-260900-
SOUTHEAST WISCONSIN

CITY           SKY/WX    TMP DP  RH WIND       PRES   REMARKS
MILWAUKEE      CLOUDY    62  51  67 W15G24    29.92S
WAUKESHA       CLOUDY    55  50  82 W15       29.94S
MILWAUKEE/TIMM CLOUDY    59  48  67 W15       29.92S
RACINE         CLOUDY    61  52  72 W13G20    29.94S
BURLINGTON     CLOUDY    58  51  78 W9        29.94F
KENOSHA        CLOUDY    60  53  77 W12       29.94S
FOND DU LAC    CLOUDY    59  47  64 W13       29.90F
SHEBOYGAN      CLOUDY    59  46  62 W15G23    29.88S
WEST BEND      CLOUDY    59  50  72 W12G20    29.90F
JUNEAU         CLOUDY    57  49  75 W9        29.93S
$$

LSZ147-162-260900-
LAKE SUPERIOR

STATION/POSITION TIME  TEMP    WIND        PRES    WAVE
                       AIR SEA DIR/SP/G            HT/PER
                 (UTC) (F)     (DEG/KT/KT) (MB)    (FT/S)
W MID LAKE BUOY  0750   56 59  240/ 25/ 29 1002.7F   6/ 7
DEVILS ISLAND    0800   53     230/ 24/ 29 1004.3F
SAXON HARBOR     0700   55     220/  8/ 15 1006.8
$$

LMZ867-665-643>646-260900-
LAKE MICHIGAN

STATION/POSITION TIME  TEMP    WIND        PRES    WAVE
                       AIR SEA DIR/SP/G            HT/PER
                 (UTC) (F)     (DEG/KT/KT) (MB)    (FT/S)
CHAMBERS ISLAND  0700   61     220/  8/ 16 1008.5F
N MID LAKE BUOY  0750   64 67  240/ 21/ 23 1006.6F   4/ 6
NORTHPORT PIER   0720   61     260/  4/ 12 1008.1F
KEWAUNEE LAKESHO 0700   61     260/ 11/ 16 1009.8S
SHEBOYGAN LAKESH 0800   61     270/ 14/ 19 1011.3R
PORT WASHINGTON  0740   61     270/  9/ 16 1012.9R
ATWATER BUOY     0800   60 52  260/ 10/ 12 1012.9R
MILWAUKEE LAKESH 0710   62     290/ 10/ 12   N/A
S MID LAKE BUOY  0750   65 72  280/ 19/ 23 1011.8F   4/ 4
KENOSHA   LAKESH 0800   62     270/ 11/ 17 1013.5S
$$

TC  - TEMPERATURE IN CELSIUS
VSB - VISIBILITY IN STATUTE MILES
WCI - WIND CHILL INDEX
HX  - HEAT INDEX





USA.gov is the U.S. government's official web portal to all federal, state and local government web resources and services.